Wetbulb
67.33 69.02 71.26 71.21 70.74 71.62 72.00 71.92 71.76 71.75 71.86 71.88 71.50 71.27 70.64 69.93 69.99 70.43 69.71 68.67 68.07 67.83 67.80 67.61 67.47 67.47 66.94 67.09 67.25 66.98 66.57 66.55 67.48 67.37 66.59 66.20 67.16 68.45 67.05 67.28 66.36 64.16 68.17
68.10 69.74 70.76 70.94 70.23 70.91 70.78 71.04 71.55 71.30 71.44 71.56 70.73 70.63 70.03 69.86 68.95 68.73 68.41 67.65 68.24 67.60 67.40 67.03 66.68 66.62 66.48 66.47 66.19 65.79 65.47 65.58 66.70 67.24 66.49 65.30 65.69 65.89 66.07 66.00 66.58 64.10 66.08
68.71 69.83 69.43 70.35 70.33 70.24 70.73 70.76 71.08 71.50 71.14 70.81 70.80 70.50 69.89 69.63 68.98 68.17 68.28 67.39 68.18 67.30 67.07 66.71 66.49 66.27 65.89 65.61 65.19 65.13 65.15 65.12 66.40 66.40 66.18 61.29 61.88 65.22 65.56 64.79 64.56 64.83 64.98
68.61 69.42 68.69 69.42 70.45 70.37 69.96 70.14 70.71 71.29 71.11 70.85 70.24 70.30 69.96 69.65 68.58 67.77 67.57 67.52 66.92 66.73 66.68 66.21 65.99 65.94 65.53 65.09 64.60 64.38 64.48 64.82 66.42 64.50 60.97 60.98 61.89 64.92 65.07 64.51 64.34 64.16 63.95
68.34 68.76 68.69 69.59 70.32 70.42 70.22 70.22 70.17 70.61 70.34 70.34 70.35 69.33 68.82 68.33 68.08 67.34 67.07 66.74 66.60 66.68 66.32 66.03 65.42 65.33 64.86 64.21 63.86 64.00 64.08 64.63 65.57 61.97 59.87 60.00 59.62 63.87 64.91 64.50 63.48 63.27 63.37
67.96 67.93 68.91 69.77 70.44 70.48 70.22 70.29 70.17 70.39 70.53 70.20 69.31 68.46 68.10 67.57 67.15 66.63 66.27 65.97 66.23 65.70 65.96 65.67 65.04 64.38 63.83 63.26 63.25 63.29 63.79 65.23 63.31 59.01 59.41 62.12 60.82 64.93 65.09 64.51 64.01 63.47 63.31
66.76 67.09 67.90 69.46 70.13 70.39 70.30 70.32 70.08 69.97 70.53 69.62 68.99 68.25 67.40 67.08 66.27 65.87 65.71 65.89 65.80 65.63 65.46 65.16 64.72 64.05 63.54 63.02 62.77 62.93 62.90 63.66 59.36 59.14 60.13 60.64 61.74 65.09 65.56 65.11 64.67 64.39 64.24
66.51 66.22 67.34 66.67 68.28 69.28 69.70 69.84 69.68 69.76 69.80 69.22 68.01 67.21 66.86 66.57 66.01 65.59 65.43 65.60 65.63 65.30 65.04 64.68 64.29 63.77 63.17 62.65 62.06 61.96 62.46 62.40 59.42 58.80 59.50 60.30 64.93 66.05 65.90 65.42 65.44 65.29 65.17
67.21 65.57 65.82 66.65 66.27 66.25 67.26 67.97 68.47 69.03 69.04 68.73 68.61 67.92 67.30 67.10 66.79 66.11 65.88 65.18 65.14 64.89 64.61 64.21 63.79 63.42 63.03 62.39 61.74 61.37 61.34 61.40 57.81 58.36 59.56 59.43 64.81 66.22 66.55 66.24 66.24 66.39 66.54
66.79 66.25 65.48 64.92 65.71 66.30 66.05 64.41 65.29 66.27 66.99 66.93 65.93 64.95 64.37 64.74 64.95 64.68 64.04 65.04 64.22 64.20 63.80 63.13 62.69 62.51 62.46 61.89 61.17 61.37 60.87 61.12 58.40 58.73 58.78 60.77 64.52 65.65 66.20 65.85 66.16 66.20 66.18
65.41 66.13 65.17 64.12 63.65 64.57 65.51 62.32 62.75 63.85 64.17 63.72 63.30 62.40 61.64 62.59 62.92 62.99 62.80 64.23 63.98 63.64 63.18 62.61 61.70 61.17 62.03 61.86 61.72 61.07 60.88 59.16 58.87 58.84 58.94 62.71 64.22 65.20 65.82 65.46 65.74 65.41 65.01
62.56 65.22 66.03 65.29 64.10 63.69 64.92 63.92 63.27 63.77 63.72 63.58 63.08 62.22 62.64 60.72 60.44 61.17 60.26 61.88 63.17 63.01 62.93 61.72 61.50 61.97 60.41 59.29 58.67 60.20 59.19 59.31 59.02 58.90 59.00 62.70 64.00 64.66 64.98 65.38 64.63 63.79 63.30
61.60 63.47 65.81 65.79 64.21 62.41 62.58 62.23 61.35 62.20 62.39 62.89 62.93 62.25 61.52 60.00 58.35 58.40 57.25 57.32 57.00 58.33 58.63 59.93 59.79 59.77 59.83 59.51 59.54 59.16 59.43 59.32 59.06 58.99 59.52 61.90 63.45 64.49 64.93 63.42 62.03 61.75 61.61
60.77 62.15 63.97 66.06 64.37 61.91 62.23 61.86 60.35 59.94 61.09 61.61 62.25 62.11 60.87 60.35 59.84 59.42 59.75 60.30 59.91 60.00 59.67 59.85 59.50 59.74 59.74 60.12 60.10 59.80 60.05 59.77 59.54 58.68 57.84 59.44 62.59 62.07 60.81 59.83 60.22 60.60 59.99
60.25 61.80 62.93 64.15 65.10 62.41 61.47 61.06 60.81 59.80 59.83 60.37 61.32 61.32 60.95 59.79 59.09 59.45 59.91 60.19 60.13 60.14 59.98 59.72 59.77 60.11 59.90 59.82 59.89 59.69 59.81 59.34 59.04 58.77 56.65 57.43 57.50 57.98 58.65 59.33 59.17 59.13 59.70
61.06 61.38 62.34 63.31 64.65 63.62 60.83 60.28 59.67 59.91 59.87 59.39 60.06 60.84 61.40 60.71 59.78 59.96 60.02 60.32 60.21 60.35 60.29 60.11 59.64 58.99 58.66 59.27 59.06 60.73 59.66 59.09 58.39 58.04 57.03 55.78 55.97 56.01 56.35 57.00 58.14 59.13 58.36
61.52 61.80 62.15 62.51 63.54 63.49 60.78 60.42 59.71 59.78 60.27 59.42 60.93 61.38 61.35 61.03 60.05 59.96 60.00 59.94 61.55 60.79 60.57 60.26 59.69 58.67 58.24 59.27 59.25 59.48 58.88 58.88 57.44 56.00 56.92 54.31 51.36 54.14 54.06 55.46 56.33 55.67 55.17
61.94 61.48 62.19 63.30 62.38 63.70 61.10 60.29 60.36 59.85 60.17 60.69 61.24 61.01 61.37 61.50 60.69 59.88 60.32 60.86 61.08 60.48 60.03 59.18 58.64 57.96 58.64 57.57 57.83 56.81 57.59 58.02 56.18 54.78 53.50 50.65 46.26 48.60 52.00 53.19 52.46 52.14 52.31
62.14 61.42 61.73 62.16 61.73 62.31 61.82 61.04 60.19 60.08 59.57 60.78 61.42 61.39 61.45 61.55 61.13 59.99 59.41 61.28 61.44 59.32 59.01 58.75 57.28 59.33 57.77 56.49 55.54 55.02 55.62 55.87 54.15 53.83 51.49 46.62 45.90 45.49 47.41 50.56 49.06 48.48 49.41
61.22 60.47 60.88 61.85 61.90 62.79 61.70 60.79 60.33 59.96 59.84 60.49 61.29 61.83 62.38 61.17 60.82 59.86 59.61 59.65 58.81 58.47 58.04 57.69 59.04 59.59 58.25 56.05 56.39 55.85 54.84 54.43 52.41 50.23 44.51 44.45 44.27 44.00 45.21 44.18 42.96 42.82 46.64
59.97 58.35 58.43 59.76 61.03 62.48 60.89 59.64 58.87 58.82 59.09 59.89 61.32 62.12 62.20 60.90 60.70 59.75 59.48 59.37 59.45 58.42 58.33 58.88 59.78 58.12 57.28 55.52 54.05 53.54 52.95 51.45 49.18 45.29 42.25 41.39 43.10 44.01 43.27 41.87 40.46 39.40 40.31
61.33 61.19 58.34 58.43 59.60 60.68 61.28 61.02 59.37 59.17 59.61 60.29 62.34 62.17 61.94 61.22 60.90 60.48 59.96 59.64 59.77 58.79 59.41 59.49 59.45 57.17 57.17 54.86 52.48 51.72 48.35 48.84 48.14 46.40 42.03 41.34 40.72 42.36 42.06 40.54 38.82 38.81 38.24
61.26 61.80 61.26 58.58 59.10 59.51 60.42 60.58 60.19 60.64 60.78 60.82 61.22 61.62 62.04 61.67 61.28 60.72 60.74 60.62 60.98 60.01 59.70 59.03 59.71 57.92 55.83 52.99 52.94 50.73 45.33 43.84 43.95 46.93 40.58 39.05 39.79 40.16 40.83 39.30 38.56 38.55 37.83
61.25 62.31 62.63 61.22 59.12 59.79 60.28 60.09 60.07 60.15 59.66 61.11 61.61 62.15 62.08 61.96 61.38 61.72 61.29 60.70 60.34 61.12 60.68 59.84 59.27 58.34 57.10 52.95 50.54 50.63 47.46 45.37 39.94 39.03 40.61 37.55 39.42 40.48 39.06 38.13 36.89 37.43 36.90
61.42 62.10 62.78 62.74 60.98 59.68 60.21 60.28 60.71 60.80 61.63 61.67 61.68 61.30 61.75 61.41 61.33 61.21 61.44 61.06 59.92 60.01 58.91 57.79 56.54 56.92 56.74 52.77 49.93 46.49 44.35 42.88 42.36 38.53 34.84 35.43 37.75 38.67 38.47 37.21 36.37 35.82 36.49
60.15 61.42 62.03 62.36 62.48 61.97 60.25 60.15 60.96 61.16 60.84 61.02 61.06 60.81 61.01 60.14 59.65 59.11 58.60 60.11 59.37 57.84 56.52 55.44 54.76 54.49 50.60 48.41 45.71 44.39 42.33 40.72 40.07 36.41 34.67 34.54 33.58 36.21 36.91 36.91 35.86 35.33 35.52
MSLP
1020.06 1020.29 1020.50 1020.65 1020.79 1020.94 1020.93 1020.99 1021.15 1021.30 1021.38 1021.49 1021.58 1021.69 1021.83 1021.98 1022.01 1022.05 1022.10 1022.20 1022.34 1022.35 1022.38 1022.41 1022.43 1022.50 1022.50 1022.54 1022.56 1022.50 1022.60 1022.61 1022.57 1022.61 1022.73 1022.66 1022.59 1022.55 1022.51 1022.54 1022.58 1022.47 1022.23
1019.76 1020.33 1020.58 1020.76 1020.95 1021.11 1021.32 1021.36 1021.40 1021.57 1021.66 1021.77 1021.91 1021.96 1022.17 1022.30 1022.40 1022.46 1022.55 1022.69 1022.64 1022.76 1022.86 1022.96 1022.98 1022.98 1023.03 1023.09 1023.07 1023.03 1022.97 1022.95 1023.08 1022.97 1023.07 1023.17 1023.12 1023.01 1022.96 1023.03 1022.86 1022.85 1022.74
1019.86 1020.46 1020.77 1021.04 1021.23 1021.44 1021.62 1021.59 1021.57 1021.75 1021.94 1022.08 1022.24 1022.34 1022.49 1022.63 1022.73 1022.99 1023.11 1023.08 1023.02 1023.14 1023.28 1023.38 1023.39 1023.47 1023.52 1023.54 1023.53 1023.47 1023.38 1023.25 1023.15 1023.15 1023.29 1023.54 1023.55 1023.44 1023.40 1023.45 1023.45 1023.28 1023.21
1019.99 1020.35 1020.96 1021.33 1021.48 1021.69 1021.86 1021.90 1021.88 1021.98 1022.19 1022.44 1022.59 1022.67 1022.82 1022.96 1023.16 1023.40 1023.47 1023.54 1023.55 1023.56 1023.72 1023.83 1023.89 1023.96 1024.05 1024.02 1023.91 1023.79 1023.71 1023.60 1023.52 1023.56 1023.71 1023.90 1023.91 1023.93 1023.92 1023.92 1023.91 1023.87 1023.76
1019.85 1020.49 1021.24 1021.58 1021.68 1021.88 1022.09 1022.25 1022.35 1022.43 1022.55 1022.76 1022.89 1023.00 1023.24 1023.48 1023.66 1023.83 1023.93 1024.00 1023.93 1023.97 1024.14 1024.29 1024.37 1024.43 1024.47 1024.47 1024.38 1024.26 1024.16 1024.01 1023.91 1024.12 1024.35 1024.47 1024.47 1024.39 1024.39 1024.39 1024.37 1024.28 1024.17
1020.08 1020.89 1021.57 1021.82 1022.03 1022.16 1022.33 1022.43 1022.67 1022.81 1022.90 1023.00 1023.29 1023.49 1023.80 1023.98 1024.09 1024.23 1024.38 1024.50 1024.42 1024.45 1024.63 1024.72 1024.80 1024.84 1024.86 1024.87 1024.81 1024.70 1024.54 1024.29 1024.27 1024.58 1024.82 1024.89 1024.87 1024.75 1024.76 1024.73 1024.67 1024.63 1024.49
1020.42 1021.28 1021.77 1022.06 1022.26 1022.40 1022.64 1022.78 1022.96 1023.11 1023.28 1023.50 1023.73 1024.06 1024.26 1024.44 1024.47 1024.65 1024.77 1024.83 1024.85 1024.97 1025.08 1025.14 1025.20 1025.25 1025.28 1025.23 1025.12 1025.03 1024.90 1024.75 1024.73 1025.06 1025.32 1025.38 1025.15 1024.96 1024.96 1024.91 1024.81 1024.68 1024.54
1020.60 1021.42 1021.91 1022.36 1022.54 1022.67 1022.80 1023.08 1023.30 1023.50 1023.64 1023.81 1024.23 1024.45 1024.62 1024.79 1024.89 1024.99 1025.14 1025.21 1025.25 1025.39 1025.50 1025.51 1025.52 1025.56 1025.61 1025.60 1025.49 1025.37 1025.29 1025.12 1025.04 1025.34 1025.63 1025.74 1025.47 1025.14 1025.06 1024.91 1024.84 1024.68 1024.52
1020.86 1021.47 1022.15 1022.48 1022.85 1023.00 1023.19 1023.28 1023.59 1023.81 1024.07 1024.24 1024.52 1024.89 1025.14 1025.28 1025.37 1025.46 1025.55 1025.63 1025.66 1025.72 1025.81 1025.91 1025.91 1025.91 1025.91 1025.95 1025.87 1025.68 1025.54 1025.51 1025.45 1025.64 1025.91 1026.21 1025.86 1025.43 1025.14 1025.03 1024.92 1024.68 1024.41
1021.11 1021.54 1021.96 1022.57 1022.78 1023.17 1023.47 1023.68 1023.91 1024.20 1024.44 1024.73 1024.96 1025.29 1025.59 1025.74 1025.81 1025.89 1026.03 1026.03 1026.07 1026.10 1026.15 1026.19 1026.21 1026.19 1026.19 1026.19 1026.08 1026.01 1025.83 1025.69 1025.61 1026.03 1026.34 1026.45 1026.07 1025.63 1025.36 1025.18 1025.00 1024.81 1024.72
1021.35 1021.48 1021.95 1022.29 1022.66 1023.06 1023.59 1023.96 1024.14 1024.30 1024.67 1024.99 1025.14 1025.28 1025.35 1025.63 1025.84 1026.28 1026.35 1026.35 1026.34 1026.37 1026.35 1026.40 1026.41 1026.41 1026.37 1026.26 1026.04 1026.04 1025.96 1025.73 1025.69 1026.21 1026.51 1026.52 1026.20 1025.79 1025.59 1025.34 1025.21 1025.11 1025.03
1021.46 1021.57 1021.89 1022.18 1022.34 1022.88 1023.41 1023.86 1024.10 1024.36 1024.58 1024.81 1025.10 1025.34 1025.34 1025.61 1025.88 1026.30 1026.52 1026.55 1026.51 1026.50 1026.50 1026.52 1026.47 1026.47 1026.48 1026.46 1026.26 1026.12 1026.03 1025.88 1025.85 1026.42 1026.71 1026.51 1026.29 1025.90 1025.63 1025.57 1025.54 1025.50 1025.43
1021.45 1021.82 1021.87 1022.23 1022.30 1022.77 1023.28 1023.68 1024.03 1024.16 1024.34 1024.62 1024.84 1024.95 1025.20 1025.69 1026.05 1026.29 1026.54 1026.57 1026.54 1026.48 1026.62 1026.49 1026.53 1026.51 1026.41 1026.41 1026.39 1026.27 1026.17 1026.08 1026.12 1026.62 1026.90 1026.68 1026.49 1026.18 1025.98 1026.06 1026.05 1025.90 1025.82
1021.51 1021.77 1021.95 1022.15 1022.38 1022.83 1023.29 1023.33 1023.91 1024.04 1024.22 1024.48 1024.70 1024.97 1025.30 1025.60 1025.72 1025.87 1026.11 1026.16 1026.20 1026.29 1026.31 1026.35 1026.48 1026.43 1026.40 1026.35 1026.37 1026.38 1026.29 1026.25 1026.25 1026.84 1027.10 1026.95 1026.83 1026.65 1026.72 1026.62 1026.47 1026.37 1026.30
1021.38 1021.82 1022.00 1022.31 1022.40 1022.63 1023.22 1023.34 1023.39 1023.91 1024.20 1024.43 1024.71 1024.94 1025.12 1025.50 1025.77 1025.68 1025.80 1025.92 1026.01 1026.03 1026.17 1026.30 1026.34 1026.38 1026.32 1026.27 1026.22 1026.19 1026.27 1026.30 1026.36 1026.91 1027.35 1027.27 1027.37 1027.26 1027.20 1027.10 1026.92 1026.74 1026.59
1020.82 1021.51 1021.85 1022.12 1022.21 1022.22 1022.95 1023.30 1023.50 1023.67 1023.75 1024.10 1024.52 1024.71 1024.75 1025.06 1025.38 1025.54 1025.71 1025.76 1025.80 1025.81 1025.97 1026.16 1026.29 1026.35 1026.27 1026.14 1026.15 1026.04 1026.10 1026.29 1026.46 1026.75 1027.40 1027.79 1027.81 1027.78 1027.79 1027.59 1027.40 1027.22 1027.35
1020.26 1021.13 1021.70 1021.92 1022.09 1022.40 1022.43 1022.94 1023.38 1023.57 1023.75 1024.04 1024.04 1024.21 1024.48 1024.66 1024.90 1025.17 1025.42 1025.63 1025.56 1025.81 1025.94 1026.08 1026.10 1026.19 1026.20 1026.02 1026.03 1026.04 1026.01 1026.30 1026.66 1026.98 1027.42 1028.03 1028.30 1028.24 1028.31 1028.17 1028.11 1028.18 1028.08
1019.73 1020.57 1021.27 1021.50 1021.87 1022.11 1022.24 1022.53 1022.93 1023.41 1023.58 1023.84 1024.08 1024.25 1024.45 1024.55 1024.71 1024.95 1025.16 1025.24 1025.37 1025.70 1025.97 1026.13 1026.30 1026.33 1026.20 1025.99 1026.12 1026.24 1026.24 1026.51 1026.91 1027.29 1027.55 1028.03 1028.33 1028.62 1028.73 1028.78 1028.92 1028.81 1028.64
1019.20 1020.02 1020.78 1021.26 1021.57 1021.95 1021.87 1022.30 1022.51 1022.65 1023.09 1023.22 1023.49 1024.05 1024.38 1024.58 1024.64 1024.86 1025.02 1025.19 1025.34 1025.75 1025.93 1026.10 1026.35 1026.33 1026.17 1026.31 1026.38 1026.35 1026.64 1026.84 1027.23 1027.60 1028.05 1028.36 1028.66 1028.93 1029.31 1029.45 1029.46 1029.28 1029.18
1018.62 1019.45 1020.22 1020.91 1021.49 1021.62 1021.74 1021.87 1022.23 1022.46 1022.73 1022.71 1022.88 1023.18 1023.62 1024.18 1024.57 1024.83 1024.95 1025.13 1025.35 1025.77 1026.00 1026.20 1026.14 1026.00 1026.10 1026.34 1026.46 1026.67 1026.95 1027.20 1027.51 1028.05 1028.55 1028.73 1028.93 1029.22 1029.52 1029.88 1030.04 1030.01 1029.93
1018.12 1018.82 1019.38 1020.18 1020.72 1021.29 1021.56 1021.74 1022.07 1022.37 1022.55 1022.64 1022.58 1022.54 1022.69 1023.35 1023.95 1024.47 1024.78 1024.94 1025.00 1025.34 1025.62 1025.71 1025.91 1025.97 1026.12 1026.48 1026.80 1027.07 1027.24 1027.59 1027.98 1028.42 1028.70 1029.07 1029.27 1029.55 1029.87 1030.15 1030.36 1030.50 1030.63
1016.94 1017.64 1018.48 1019.24 1019.94 1020.37 1020.64 1021.16 1021.44 1021.89 1022.21 1022.21 1022.32 1022.49 1022.58 1023.02 1023.49 1024.01 1024.43 1024.63 1024.72 1024.99 1025.24 1025.48 1025.67 1025.88 1026.09 1026.58 1027.00 1027.13 1028.10 1028.51 1028.47 1028.58 1028.91 1029.10 1029.46 1029.72 1030.12 1030.56 1030.70 1030.83 1030.92
1016.33 1016.58 1017.29 1018.02 1018.83 1019.47 1019.98 1020.56 1021.04 1021.40 1021.65 1021.98 1022.22 1022.50 1022.62 1022.79 1023.20 1023.55 1023.87 1024.18 1024.37 1024.61 1024.87 1025.10 1025.30 1025.55 1025.95 1026.59 1026.85 1027.29 1027.63 1028.24 1028.67 1029.11 1029.25 1029.47 1029.66 1030.09 1030.47 1030.70 1030.94 1031.10 1031.19
1015.54 1016.03 1016.46 1017.08 1017.87 1018.58 1019.28 1019.75 1020.05 1020.39 1020.71 1020.94 1021.28 1021.75 1022.01 1022.24 1022.50 1022.74 1022.97 1023.42 1023.76 1024.06 1024.39 1024.48 1024.65 1025.11 1025.53 1026.24 1026.86 1027.04 1027.20 1027.46 1028.09 1029.24 1029.64 1029.76 1029.89 1030.11 1030.30 1030.78 1031.15 1031.43 1031.26
1014.89 1015.16 1015.49 1016.15 1016.92 1017.52 1018.09 1018.55 1019.09 1019.65 1020.02 1020.39 1020.70 1021.30 1021.75 1021.81 1021.99 1022.20 1022.41 1022.62 1022.98 1023.36 1023.68 1024.07 1024.69 1025.03 1025.33 1025.92 1026.42 1027.06 1027.47 1027.71 1027.92 1028.34 1029.35 1030.11 1030.22 1030.30 1030.30 1030.67 1031.08 1031.45 1031.58
1014.45 1015.03 1015.32 1015.62 1016.03 1016.54 1017.14 1017.72 1018.19 1018.72 1019.26 1019.69 1019.92 1020.30 1020.74 1021.12 1021.50 1021.75 1022.09 1022.17 1022.40 1022.84 1023.41 1023.72 1024.04 1024.66 1025.11 1025.59 1026.15 1026.46 1026.94 1027.41 1028.00 1028.29 1028.81 1029.54 1029.86 1030.58 1030.48 1030.59 1030.91 1031.19 1031.46
Wind_Speed
9 7 8 9 11 10 12 14 15 13 13 14 15 16 17 18 19 19 19 17 19 19 19 19 19 18 19 19 19 19 17 16 17 20 20 21 19 21 20 18 16 12 21
13 9 10 11 11 12 11 11 12 12 13 15 14 15 17 19 19 19 16 16 17 19 19 19 18 18 18 18 17 16 14 12 10 14 18 18 18 20 20 20 17 16 18
13 10 10 11 11 11 9 9 10 12 14 15 15 17 18 18 20 17 16 16 16 18 18 18 18 18 18 17 16 14 13 14 12 5 14 7 10 16 18 17 18 17 18
12 11 10 11 11 11 9 9 10 13 14 14 14 15 18 18 19 17 17 15 15 16 18 18 17 18 17 17 15 13 12 14 14 17 9 9 10 17 18 17 17 16 16
11 13 11 11 11 11 10 10 11 12 13 13 14 17 17 18 17 17 15 15 15 17 17 17 17 16 15 14 12 12 12 12 12 12 9 8 6 13 16 16 14 14 15
12 13 10 11 10 10 10 11 11 9 13 17 17 17 15 16 16 16 15 13 13 15 16 16 15 15 15 14 12 11 12 12 10 8 7 9 6 15 15 15 14 13 13
12 11 9 10 8 10 10 10 10 10 14 16 17 15 14 14 14 14 14 13 14 15 14 14 13 14 13 13 11 11 13 12 7 7 7 7 6 15 15 14 13 13 12
12 10 9 9 9 11 11 12 11 11 14 17 16 14 14 13 13 13 13 13 13 13 13 13 13 12 11 11 10 9 9 11 7 7 7 6 13 13 12 11 12 11 10
8 10 8 8 9 11 10 13 13 13 14 15 15 13 12 11 12 12 11 11 11 11 11 11 10 10 10 9 8 8 11 10 3 6 8 4 11 14 14 15 15 15 16
8 9 9 7 8 8 7 11 12 13 14 13 13 12 11 10 10 10 9 9 10 9 9 8 7 7 7 6 4 4 8 9 4 7 5 4 12 15 15 16 17 18 19
8 8 8 8 7 8 8 8 9 12 12 11 9 11 11 5 7 7 7 8 8 8 7 5 3 2 2 1 2 4 7 3 4 6 4 10 13 14 14 15 18 19 21
6 8 8 7 9 9 8 6 6 7 6 6 6 6 3 6 5 6 5 6 6 5 5 3 2 3 4 3 2 3 2 4 3 6 4 13 13 14 15 18 19 20 18
6 5 7 6 4 7 8 4 3 3 4 5 7 4 6 5 4 4 3 3 3 5 2 3 2 1 4 4 4 3 4 4 3 5 6 14 13 15 18 19 18 18 19
8 7 6 5 4 6 4 5 5 3 3 3 4 4 3 3 4 4 3 4 3 2 2 0 2 0 2 1 2 4 4 3 3 5 7 13 13 18 18 17 18 19 19
10 7 6 6 5 6 5 3 5 5 4 4 5 4 4 4 3 2 3 3 3 2 2 1 2 0 1 1 1 2 3 4 6 6 4 13 17 18 18 19 19 18 20
12 9 7 6 6 6 6 4 4 4 5 5 5 5 4 5 4 4 3 3 3 1 2 2 2 1 3 2 2 1 2 5 6 6 6 8 15 18 19 18 19 21 22
13 12 9 7 6 3 8 6 4 4 4 4 5 7 6 5 5 5 4 3 3 3 1 1 2 1 3 3 2 3 3 6 6 6 6 7 8 16 19 19 22 20 21
9 14 13 8 6 5 6 6 5 5 5 4 3 4 6 6 6 4 4 4 4 3 2 1 2 2 1 2 1 3 3 6 7 7 7 7 4 6 12 18 19 19 21
11 10 14 13 11 8 7 6 6 8 6 5 5 5 7 5 5 4 3 3 4 1 2 2 0 2 1 3 3 2 4 5 6 6 7 7 7 6 5 16 18 18 19
11 10 12 12 12 11 5 5 4 5 4 5 5 6 9 6 6 4 3 5 4 3 2 2 3 2 2 2 2 3 5 4 5 5 6 6 6 7 7 9 6 7 17
11 11 12 13 14 12 7 5 4 5 4 4 5 8 9 8 8 6 5 5 5 5 5 5 2 2 2 2 2 3 3 6 7 5 5 5 6 7 8 6 4 4 6
13 14 14 14 13 12 9 7 4 5 4 4 3 5 6 7 7 7 6 5 5 4 5 5 4 2 2 2 2 2 2 1 3 5 5 5 6 5 6 6 7 6 5
16 16 15 16 16 13 12 7 4 4 3 4 4 4 5 7 8 7 7 5 5 5 4 5 5 6 4 1 3 3 2 4 3 2 4 5 6 5 5 6 7 5 5
17 13 15 14 15 14 14 11 14 11 9 7 7 6 7 9 9 10 9 8 7 5 6 5 4 3 4 4 2 1 2 3 4 2 1 3 5 6 6 5 5 4 5
15 16 15 15 15 15 16 15 12 11 8 7 5 7 9 9 9 9 10 9 7 6 5 6 5 5 3 4 4 3 1 2 1 3 4 3 3 3 4 5 5 4 4
12 13 13 15 16 16 16 17 15 15 11 9 9 8 9 6 5 6 6 7 7 6 7 6 6 6 5 4 3 4 4 4 3 3 3 2 4 2 3 4 5 3 3
Wind_Direction
116 128 126 107 100 91 89 101 101 97 95 90 88 86 86 82 78 75 75 73 74 70 69 69 69 70 71 70 71 74 73 68 76 79 62 62 65 54 65 59 59 54 51
117 125 118 99 92 87 90 92 93 100 99 97 96 96 86 81 81 77 78 78 75 75 72 71 71 71 71 70 68 67 60 50 49 90 77 64 65 60 55 49 56 48 46
111 123 109 99 98 98 95 92 92 102 110 101 96 96 95 92 85 80 75 78 77 75 75 71 72 74 73 72 71 67 49 30 7 37 92 73 59 63 62 57 49 54 47
128 130 114 111 109 105 102 95 98 100 104 102 101 95 89 86 89 84 75 79 80 80 74 70 71 74 72 70 67 60 38 16 33 47 57 61 61 58 52 52 52 47 45
118 103 119 115 113 107 103 94 96 105 106 102 102 85 85 82 83 85 78 76 78 81 76 74 73 74 71 66 61 46 22 3 68 71 55 49 43 54 54 51 48 45 41
112 105 111 113 112 120 113 114 111 124 115 96 91 88 90 88 89 84 82 79 81 83 78 75 74 75 72 66 58 39 18 21 61 60 64 55 45 53 50 46 43 41 36
105 111 115 107 112 135 113 100 88 101 108 98 94 94 93 94 94 91 86 85 88 84 80 77 76 73 70 65 50 29 14 1 67 81 59 36 38 50 47 42 35 32 28
116 115 125 104 85 111 117 99 85 82 110 106 98 100 102 100 99 93 91 88 90 89 84 81 78 78 72 61 43 23 14 11 47 79 74 37 11 39 40 33 21 17 12
117 123 126 123 104 85 94 93 84 77 96 96 98 92 89 87 86 84 88 93 94 93 86 77 75 75 71 60 38 9 356 349 42 69 64 32 3 21 23 17 13 11 15
137 138 144 132 140 118 103 94 91 86 94 95 98 99 93 96 101 101 87 88 94 93 87 80 74 73 73 65 21 344 327 315 47 89 69 27 20 22 20 16 19 25 31
154 146 150 157 148 130 122 114 100 106 110 112 121 141 144 152 112 84 78 89 100 99 96 87 77 102 113 172 244 337 331 1 62 88 71 39 26 23 27 29 36 37 34
182 148 159 168 154 146 133 158 136 136 150 141 156 179 214 85 102 103 113 116 116 124 123 130 233 273 255 236 269 298 3 353 39 96 65 52 35 39 42 42 40 36 34
183 110 144 156 172 133 145 158 140 175 170 161 179 158 111 116 132 151 153 163 170 196 207 200 236 305 26 25 9 11 13 22 38 85 65 61 45 47 50 43 38 38 39
177 156 158 155 183 151 166 143 167 145 141 144 147 149 134 162 171 170 162 167 190 160 163 39 109 218 359 20 44 6 25 31 38 104 77 67 52 52 50 48 46 46 45
160 174 175 151 215 155 146 192 150 158 154 168 142 170 169 142 180 164 160 168 146 188 151 159 118 185 293 57 318 89 24 33 60 96 86 79 70 61 53 51 51 52 53
162 170 183 168 203 171 160 170 161 147 173 147 163 178 183 158 173 157 179 175 178 156 107 74 65 343 296 188 300 121 90 71 67 75 105 87 78 69 58 55 55 54 51
164 164 191 175 195 246 168 155 161 170 148 170 170 169 179 177 178 168 175 172 183 115 104 215 273 308 330 13 339 45 81 95 81 65 107 99 82 75 68 59 61 58 51
161 169 178 187 190 214 176 159 173 171 157 187 176 155 180 195 169 191 172 191 142 154 185 199 60 320 320 309 48 20 4 95 90 88 74 77 71 83 70 75 67 56 47
168 178 174 184 196 205 187 173 185 165 181 186 168 169 187 187 198 172 179 126 122 91 73 97 258 224 350 3 16 328 79 102 97 93 86 77 70 68 87 82 73 56 50
170 180 175 180 189 204 207 177 182 170 194 182 179 176 173 174 192 185 167 158 146 163 197 203 214 220 203 100 349 68 96 91 99 87 84 84 83 75 69 64 41 32 52
174 184 180 175 185 192 195 185 182 193 186 214 190 184 170 170 178 182 187 188 183 187 195 200 227 221 157 79 33 65 71 103 91 94 89 84 88 85 81 76 67 47 48
188 184 181 187 189 192 189 193 182 181 197 198 186 180 170 170 175 182 186 197 198 189 198 194 200 187 109 86 140 135 142 348 79 105 92 94 95 102 97 82 65 52 62
200 188 186 187 188 194 193 184 192 175 184 181 195 189 194 181 182 186 190 191 196 192 199 192 198 188 158 131 113 160 144 202 131 140 99 99 103 94 96 88 75 60 63
200 196 194 189 190 194 191 190 195 199 198 198 193 189 193 194 193 191 187 190 193 194 203 192 174 188 160 162 108 166 97 147 162 143 84 106 119 108 104 83 79 62 58
194 199 194 193 194 194 193 197 194 200 199 193 176 187 201 203 197 192 194 190 192 186 177 164 169 201 176 142 152 153 131 56 72 130 163 155 74 112 115 107 94 66 36
194 201 201 198 201 197 197 199 203 201 201 195 196 198 195 186 186 185 189 188 180 168 174 172 168 177 166 143 142 153 167 164 186 157 136 151 150 185 128 112 104 82 60